カタログに戻る

COSMOS 1823 DEB

運用中LEO
NORAD 19640·DEBRIS·🇷🇺 Russia

打ち上げ Feb 20, 1987 から Plesetsk Cosmodrome

Loading…

次のパス (今後24時間)

TLE

最新Source: Space-Track

元期: Sep 14, 2026, 07:19 UTC

1 19640U 87020CE  26257.30538086  .00000038  00000-0  51651-3 0  9994
2 19640  73.5499  15.0595 0165374  23.4818   0.5880 12.17039263603763

AllMySatでCOSMOS 1823 DEBをリアルタイム追跡

Download on the App Store